Regional Weather Roundup
Issued by NWS

Home | Current Version | Previous Version | Text Only | Print | Product List | Glossary On
Versions: 1 2 3 4 5 6 7 8 9 10 11 12 13 14 15 16 17 18 19 20 21 22 23 24 25 26 27 28 29 30 31 32 33 34 35 36 37 38 39 40 41 42 43 44 45 46 47 48 49 50
000
ASUS46 KPQR 040510
RWROR

OREGON REGIONAL WEATHER ROUNDUP
NATIONAL WEATHER SERVICE PORTLAND OR
1000 PM PDT SUN MAY 03 2015

NOTE: "FAIR" INDICATES FEW OR NO CLOUDS BELOW 12,000 FEET WITH
NO SIGNIFICANT WEATHER AND/OR OBSTRUCTIONS TO VISIBILITY.

ORZ001>013-040600-
NORTHWEST OREGON


CITY           SKY/WX    TMP DP  RH WIND       PRES   REMARKS
ASTORIA        CLEAR     50  47  89 W8        29.93R
NEWPORT        MOCLDY    50  46  87 N7        29.98R
PORTLAND       CLEAR     63  45  51 NW10      29.87R
VANCOUVER WA   CLEAR     63  43  48 NW7       29.86R
SCAPPOOSE      CLEAR     60  43  53 N6        29.86R
HILLSBORO      CLEAR     59  44  57 NW12      29.87R
AURORA         CLEAR     59  47  64 CALM      29.88R
MCMINNVILLE    CLEAR     54  45  71 SW8       29.88R
SALEM          CLEAR     59  41  51 CALM      29.87R
CORVALLIS      CLEAR     54  43  66 NW14      29.89S
EUGENE         CLEAR     55  45  68 SE3       29.89R
$$

ORZ021-028-040600-
SOUTHWEST OREGON


CITY           SKY/WX    TMP DP  RH WIND       PRES   REMARKS
NORTH BEND     CLOUDY    52  50  93 N5        29.98R
BROOKINGS      CLOUDY    49  49 100 SW5       29.94R
ROSEBURG       CLEAR     62  44  51 CALM      29.88R
SEXTON SUMMIT  CLEAR     53  36  52 N9        29.92R
MEDFORD        CLEAR     63  36  36 NE3       29.84R
$$

ORZ014>016-041-040600-
COLUMBIA GORGE


CITY           SKY/WX    TMP DP  RH WIND       PRES   REMARKS
TROUTDALE      CLEAR     61  44  53 W7        29.85R
THE DALLES     CLEAR     59  37  44 SW3       29.83R
$$

ORZ029>031-041-044-049-050-061>064-502-503-505>511-040600-
EASTERN OREGON


CITY           SKY/WX    TMP DP  RH WIND       PRES   REMARKS
REDMOND        CLEAR     57  28  33 W5        29.88R
BEND           CLEAR     55  25  30 CALM      29.90R
PRINEVILLE     CLEAR     57  25  28 N3        29.89R
KLAMATH FALLS  CLOUDY    58  32  37 NW8       29.91R
LAKEVIEW       PTCLDY    48  30  49 SW3       29.92S
HERMISTON      CLEAR     54  33  45 S8        29.83R
PENDLETON      CLEAR     54  35  48 S8        29.85R
JOHN DAY       CLEAR     56  26  31 CALM      29.90R
MEACHAM        CLEAR     40  34  79 CALM      29.92S
LA GRANDE      CLEAR     55  30  38 N14       29.87S
BAKER CITY     CLEAR     46  33  60 S3        29.90R
BURNS          PTCLDY    56  22  26 NW6       29.88R
ROME             N/A     66  28  24 E15       29.85R
ONTARIO        CLEAR     59  34  39 N3        29.82R
$$


USA.gov is the U.S. government's official web portal to all federal, state and local government web resources and services.